Location: Unspecified
(50.7693°N, 0.0000°E)
Time: 18:17:07
(UTC+00:00)

Vanguard 2 - Pass Details

Date: 18 June 2019
Orbit: 553 x 2938 km, 32.9° (Epoch: 20 August)

Event Time Altitude Azimuth Distance (km) Brightness Sun altitude
Rises 10:55:17 0° 236° (SW) 4,015 11.2 59.8°
Reaches altitude 10° 10:58:06 10° 225° (SW) 3,349 11.0 60.0°
Maximum altitude 11:05:21 29° 169° (S) 2,869 11.6 60.6°
Drops below altitude 10° 11:15:53 10° 118° (ESE) 4,973 12.1 61.3°
Sets 11:21:12 0° 109° (ESE) 6,321 12.4 61.6°
